Location: Abundant Grace Fellowship
(35.0349°N, 90.0924°W)
Time: 22:17:40
(UTC+00:00)

DELTA 2 R/B (1) - Pass Details

Date: 18 January 2026
Orbit: 786 x 800 km, 39.6° (Epoch: 10 February)

Event Time Altitude Azimuth Distance (km) Brightness Sun altitude
Rises 01:38:52 0° 273° (W) 3,281 8.0 -29.3°
Reaches altitude 10° 01:41:25 10° 278° (W) 2,350 6.9 -29.8°
Enters shadow 01:45:47 47° 317° (NW) 1,041 4.3 -30.7°
